Weather in Mayaki

Ukraine / Odesa District     46°24′44″N   30°16′23″E
temp.,
°C
wind,
m/s
gust,
m/s
humid.,
%
clouds,
%
prec.,
mm/h
press.,
hPa
HPBL,
m
4 march, thu
thu423:00+4sw11620 0.0 102822
02:00+3ssw34650 0.0 102649
05:00+2ssw46800 0.0 1023124
08:00+4ssw510810 0.0 1021333
11:00+10ssw712610 0.0 1019704
14:00+13sw7105125 0.0 1016949
17:00+13sw495410 0.0 1014336
20:00+8ssw35725 0.0 101491
5 march, fri
fri523:00+7ssw357878 0.0 101389
02:00+7s348089 0.0 101362
05:00+5ssw238354 0.0 101224
08:00+7n017334 0.0 101153
11:00+10nw226095 0.0 1011345
14:00+14wnw464597 0.0 1010920
17:00+14w234568 0.0 101064
20:00+10nnw7116971 0.0 1014463
6 march, sat
sat623:00+6nnw71083100 0.0 1016676
02:00+4n81073100 0.2 1019847
05:00+2n71171100 0.0 1021814
08:00+2n6965100 0.0 1023915
11:00+3n7848100 0.0 10251310
14:00+5n793083 0.0 10261983
17:00+4nnw68300 0.0 10272444
20:00+1nnw35460 0.0 1029142
7 march, sun
sun723:000nw22540 0.0 103021
02:00−1wnw23560 0.0 103047
05:00−1wsw23540 0.0 102938
08:00+1wsw35480 0.0 1029274
11:00+5wsw68410 0.0 10271568
14:00+7wsw79330 0.0 10241690
17:00+7wsw59380 0.0 10211369
20:00+4sw511521 0.0 1020279
8 march, mon
mon823:00+2sw5106313 0.0 1019273
02:00+1sw487129 0.0 1018194
05:000sw36870 0.0 1017140
08:00+2w34740 0.0 1017192
11:00+7nnw344013 0.0 1017967
14:00+9nw453223 0.0 10161816
17:00+7nw564019 0.0 10151718
20:00+4n495915 0.0 1017306